Tracking 19280 objects as of 14-Nov-2018
HD Live streaming from Space Station
objects crossing your sky now

GALILEO 21 (2C7)

Track GALILEO 21 (2C7) now!
GALILEO 21 (2C7) is classified as:


NORAD ID: 43057
Int'l Code: 2017-079C
Perigee: 23,214.1 km
Apogee: 23,244.6 km
Inclination: 56.7 °
Period: 844.7 minutes
Semi major axis: 29600 km
RCS: Unknown
Launch date: December 12, 2017
Source: European Space Agency (ESA)
Launch site: FRENCH GUIANA (FRGUI)
aabbcc
Your satellite tracking list
Your tracking list is empty




NASA's NSSDC Master Catalog

Two Line Element Set (TLE):
1 43057U 17079C   18317.15671117 -.00000030  00000-0  00000+0 0  9995
2 43057  56.7345 297.7405 0005164 267.0886  92.8392  1.70473825  5711
Source of the keplerian elements: AFSPC